2024-153C

Last updated on Sun Sep 29 2024 00:02:03 GMT+0000 (Coordinated Universal Time)

1 60747U 24153C 24272.41525206 .00021608 00000+0 12959-2 0 9995 2 60747 97.6178 29.7827 0017112 184.1968 175.9120 15.10847327 4566

Satellite not in orbit

2024-153C